ANA1895 RJTT-RJTH

Flight info

Callsign ANA1895
Flight time 0h 31m
Altitude 23000
Route VAMOS HATSU Y587 SANGO
Aircraft B738/M-SDE2E3FGHIRWXY/LB1

Departure

Time 2026-04-25 08:38
Airport Tokyo Haneda International Airport (RJTT)

Arrival

Time 2026-04-25 09:10
Airport Hachijojima Airport (RJTH)
Time Latitude Longitude Altitude Speed Heading
2026-04-25 07:28 35.55930 139.78360 25 ft 0 kts 239°
2026-04-25 07:57 35.55939 139.78379 23 ft 4 kts 237°
2026-04-25 07:57 35.55955 139.78407 23 ft 4 kts 231°
2026-04-25 07:57 35.55973 139.78431 26 ft 4 kts 221°
2026-04-25 07:57 35.55994 139.78448 25 ft 4 kts 185°
2026-04-25 07:58 35.56006 139.78447 24 ft 0 kts 149°
2026-04-25 08:06 35.56003 139.78449 23 ft 2 kts 149°
2026-04-25 08:06 35.55977 139.78469 24 ft 7 kts 148°
2026-04-25 08:06 35.55921 139.78508 25 ft 11 kts 150°
2026-04-25 08:07 35.55856 139.78555 23 ft 11 kts 150°
2026-04-25 08:07 35.55793 139.78600 25 ft 10 kts 152°
2026-04-25 08:07 35.55730 139.78641 24 ft 10 kts 152°
2026-04-25 08:07 35.55671 139.78684 23 ft 10 kts 139°
2026-04-25 08:08 35.55655 139.78760 23 ft 10 kts 74°
2026-04-25 08:08 35.55686 139.78831 23 ft 9 kts 60°
2026-04-25 08:08 35.55695 139.78902 23 ft 9 kts 127°
2026-04-25 08:08 35.55626 139.78955 23 ft 14 kts 149°
2026-04-25 08:09 35.55545 139.79015 24 ft 14 kts 149°
2026-04-25 08:09 35.55466 139.79074 23 ft 13 kts 148°
2026-04-25 08:09 35.55391 139.79132 23 ft 13 kts 147°
2026-04-25 08:09 35.55315 139.79183 24 ft 12 kts 151°
2026-04-25 08:10 35.55241 139.79234 24 ft 12 kts 150°
2026-04-25 08:10 35.55169 139.79284 24 ft 12 kts 150°
2026-04-25 08:10 35.55090 139.79339 23 ft 15 kts 151°
2026-04-25 08:10 35.54985 139.79412 23 ft 20 kts 150°
2026-04-25 08:11 35.54854 139.79505 25 ft 24 kts 149°
2026-04-25 08:11 35.54703 139.79616 23 ft 27 kts 148°
2026-04-25 08:11 35.54540 139.79743 23 ft 28 kts 151°
2026-04-25 08:11 35.54368 139.79846 23 ft 27 kts 154°
2026-04-25 08:12 35.54209 139.79946 23 ft 25 kts 152°
2026-04-25 08:12 35.54066 139.80056 26 ft 23 kts 147°
2026-04-25 08:12 35.53932 139.80158 25 ft 22 kts 151°
2026-04-25 08:12 35.53812 139.80170 24 ft 19 kts 235°
2026-04-25 08:13 35.53735 139.80041 26 ft 18 kts 223°
2026-04-25 08:13 35.53643 139.80070 24 ft 14 kts 152°
2026-04-25 08:13 35.53558 139.80129 24 ft 14 kts 149°
2026-04-25 08:14 35.53399 139.80243 24 ft 13 kts 149°
2026-04-25 08:14 35.53323 139.80299 23 ft 12 kts 148°
2026-04-25 08:14 35.53248 139.80350 23 ft 12 kts 150°
2026-04-25 08:14 35.53176 139.80401 23 ft 12 kts 149°
2026-04-25 08:15 35.53106 139.80452 23 ft 12 kts 149°
2026-04-25 08:15 35.53038 139.80503 23 ft 11 kts 148°
2026-04-25 08:15 35.52964 139.80520 24 ft 11 kts 194°
2026-04-25 08:15 35.52926 139.80482 22 ft 5 kts 223°
2026-04-25 08:16 35.52901 139.80453 24 ft 5 kts 223°
2026-04-25 08:16 35.52876 139.80425 23 ft 5 kts 223°
2026-04-25 08:16 35.52852 139.80398 23 ft 5 kts 222°
2026-04-25 08:16 35.52828 139.80371 23 ft 5 kts 222°
2026-04-25 08:17 35.52804 139.80345 24 ft 5 kts 222°
2026-04-25 08:17 35.52781 139.80319 22 ft 5 kts 221°
2026-04-25 08:17 35.52757 139.80294 22 ft 4 kts 221°
2026-04-25 08:17 35.52734 139.80269 24 ft 4 kts 221°
2026-04-25 08:18 35.52712 139.80244 24 ft 5 kts 224°
2026-04-25 08:18 35.52663 139.80185 22 ft 16 kts 224°
2026-04-25 08:18 35.52618 139.80134 24 ft 3 kts 221°
2026-04-25 08:18 35.52590 139.80131 22 ft 8 kts 155°
2026-04-25 08:19 35.52558 139.80169 22 ft 3 kts 133°
2026-04-25 08:19 35.52546 139.80185 22 ft 3 kts 133°
2026-04-25 08:19 35.52534 139.80201 22 ft 3 kts 133°
2026-04-25 08:19 35.52520 139.80219 23 ft 5 kts 135°
2026-04-25 08:20 35.52478 139.80272 23 ft 7 kts 133°
2026-04-25 08:20 35.52475 139.80276 22 ft 0 kts 133°
2026-04-25 08:37 35.52471 139.80281 23 ft 3 kts 133°
2026-04-25 08:37 35.52440 139.80325 24 ft 10 kts 124°
2026-04-25 08:37 35.52450 139.80399 24 ft 10 kts 44°
2026-04-25 08:37 35.52599 139.80569 23 ft 64 kts 44°
2026-04-25 08:38 35.53105 139.81133 23 ft 130 kts 43°
2026-04-25 08:38 35.53899 139.82005 264 ft 164 kts 46°
2026-04-25 08:38 35.54756 139.82968 966 ft 170 kts 46°
2026-04-25 08:38 35.55657 139.83972 1689 ft 177 kts 46°
2026-04-25 08:39 35.56388 139.85265 2108 ft 199 kts 79°
2026-04-25 08:39 35.56225 139.87026 2391 ft 219 kts 110°
2026-04-25 08:39 35.55711 139.88883 2697 ft 242 kts 108°
2026-04-25 08:39 35.55192 139.90903 3329 ft 254 kts 107°
2026-04-25 08:40 35.54513 139.92916 4195 ft 259 kts 126°
2026-04-25 08:40 35.53148 139.94368 5029 ft 266 kts 154°
2026-04-25 08:40 35.51319 139.94897 5693 ft 277 kts 182°
2026-04-25 08:40 35.49383 139.94567 6477 ft 283 kts 192°
2026-04-25 08:41 35.47432 139.94083 7236 ft 289 kts 192°
2026-04-25 08:41 35.45472 139.93541 8129 ft 289 kts 200°
2026-04-25 08:41 35.43683 139.92458 9024 ft 287 kts 212°
2026-04-25 08:41 35.41946 139.91217 9903 ft 289 kts 212°
2026-04-25 08:42 35.40202 139.89961 10624 ft 296 kts 213°
2026-04-25 08:42 35.38349 139.88638 10852 ft 321 kts 212°
2026-04-25 08:42 35.36341 139.87223 11039 ft 344 kts 211°
2026-04-25 08:42 35.34192 139.85733 11247 ft 366 kts 211°
2026-04-25 08:43 35.31972 139.84191 11748 ft 375 kts 211°
2026-04-25 08:43 35.29686 139.82607 12383 ft 380 kts 211°
2026-04-25 08:43 35.27378 139.81011 13168 ft 381 kts 211°
2026-04-25 08:43 35.25063 139.79414 13908 ft 383 kts 211°
2026-04-25 08:44 35.22728 139.77805 14566 ft 385 kts 211°
2026-04-25 08:44 35.20405 139.76170 15302 ft 384 kts 215°
2026-04-25 08:44 35.18354 139.74109 16036 ft 381 kts 225°
2026-04-25 08:44 35.16467 139.71835 16810 ft 380 kts 226°
2026-04-25 08:45 35.14594 139.69557 17525 ft 380 kts 226°
2026-04-25 08:45 35.12709 139.67292 18215 ft 380 kts 226°
2026-04-25 08:45 35.10814 139.65048 18836 ft 381 kts 226°
2026-04-25 08:45 35.08897 139.62801 19366 ft 383 kts 226°
2026-04-25 08:46 35.06965 139.60550 19874 ft 385 kts 226°
2026-04-25 08:46 35.05015 139.58285 20383 ft 388 kts 226°
2026-04-25 08:46 35.03056 139.56011 20895 ft 389 kts 226°
2026-04-25 08:46 35.01085 139.53733 21394 ft 391 kts 225°
2026-04-25 08:47 34.98811 139.51857 21814 ft 403 kts 208°
2026-04-25 08:47 34.96092 139.50853 22229 ft 415 kts 195°
2026-04-25 08:47 34.93169 139.50702 22636 ft 430 kts 180°
2026-04-25 08:47 34.90244 139.51274 23067 ft 435 kts 176°
2026-04-25 08:48 34.87198 139.51981 23209 ft 443 kts 175°
2026-04-25 08:48 34.84183 139.52702 23226 ft 450 kts 175°
2026-04-25 08:48 34.81085 139.53436 23224 ft 453 kts 175°
2026-04-25 08:48 34.77993 139.54153 23185 ft 451 kts 175°
2026-04-25 08:49 34.74927 139.54851 23212 ft 448 kts 176°
2026-04-25 08:49 34.71865 139.55534 23215 ft 447 kts 176°
2026-04-25 08:49 34.68805 139.56211 23219 ft 446 kts 176°
2026-04-25 08:49 34.65748 139.56883 23224 ft 446 kts 176°
2026-04-25 08:50 34.62686 139.57556 23226 ft 447 kts 176°
2026-04-25 08:50 34.59625 139.58229 23213 ft 448 kts 176°
2026-04-25 08:50 34.56558 139.58904 23220 ft 448 kts 176°
2026-04-25 08:50 34.53487 139.59580 23228 ft 449 kts 176°
2026-04-25 08:51 34.50414 139.60256 23230 ft 449 kts 176°
2026-04-25 08:51 34.47334 139.60932 23228 ft 450 kts 176°
2026-04-25 08:51 34.44252 139.61604 23228 ft 450 kts 176°
2026-04-25 08:51 34.41166 139.62274 23214 ft 450 kts 176°
2026-04-25 08:52 34.38124 139.62933 23215 ft 450 kts 176°
2026-04-25 08:52 34.35037 139.63601 23219 ft 450 kts 176°
2026-04-25 08:52 34.31963 139.64267 23222 ft 449 kts 176°
2026-04-25 08:52 34.28915 139.64931 23206 ft 436 kts 176°
2026-04-25 08:53 34.25964 139.65577 22791 ft 426 kts 176°
2026-04-25 08:53 34.23079 139.66204 22276 ft 420 kts 176°
2026-04-25 08:53 34.20211 139.66824 21765 ft 415 kts 176°
2026-04-25 08:53 34.17387 139.67432 21225 ft 411 kts 175°
2026-04-25 08:54 34.14584 139.68035 20693 ft 407 kts 175°
2026-04-25 08:54 34.11811 139.68631 20171 ft 404 kts 175°
2026-04-25 08:54 34.09051 139.69224 19640 ft 401 kts 175°
2026-04-25 08:54 34.06311 139.69813 19094 ft 399 kts 175°
2026-04-25 08:55 34.03585 139.70399 18572 ft 397 kts 174°
2026-04-25 08:55 34.00906 139.70975 17988 ft 395 kts 174°
2026-04-25 08:55 33.98207 139.71555 17439 ft 392 kts 174°
2026-04-25 08:55 33.95539 139.72129 16909 ft 388 kts 174°
2026-04-25 08:56 33.92889 139.72699 16395 ft 385 kts 174°
2026-04-25 08:56 33.90278 139.73259 15888 ft 382 kts 174°
2026-04-25 08:56 33.87670 139.73819 15375 ft 379 kts 174°
2026-04-25 08:56 33.85072 139.74345 14858 ft 375 kts 176°
2026-04-25 08:57 33.82492 139.74720 14355 ft 372 kts 178°
2026-04-25 08:57 33.79926 139.75030 13832 ft 369 kts 178°
2026-04-25 08:57 33.77378 139.75333 13284 ft 367 kts 178°
2026-04-25 08:57 33.74847 139.75640 12765 ft 364 kts 177°
2026-04-25 08:58 33.72342 139.75956 12262 ft 361 kts 177°
2026-04-25 08:58 33.69863 139.76268 11775 ft 359 kts 176°
2026-04-25 08:58 33.67377 139.76592 11227 ft 358 kts 177°
2026-04-25 08:58 33.64927 139.76900 10964 ft 350 kts 177°
2026-04-25 08:59 33.62536 139.77213 10769 ft 340 kts 176°
2026-04-25 08:59 33.60225 139.77516 10613 ft 330 kts 177°
2026-04-25 08:59 33.57977 139.77810 10475 ft 320 kts 176°
2026-04-25 08:59 33.55794 139.78094 10327 ft 311 kts 177°
2026-04-25 09:00 33.53672 139.78375 10203 ft 302 kts 178°
2026-04-25 09:00 33.51617 139.78644 10066 ft 294 kts 176°
2026-04-25 09:00 33.49603 139.78909 9849 ft 289 kts 177°
2026-04-25 09:00 33.47624 139.79165 9560 ft 287 kts 175°
2026-04-25 09:01 33.45643 139.79421 9271 ft 285 kts 176°
2026-04-25 09:01 33.43681 139.79678 8980 ft 284 kts 175°
2026-04-25 09:01 33.41723 139.79931 8689 ft 282 kts 175°
2026-04-25 09:01 33.39745 139.80186 8089 ft 292 kts 175°
2026-04-25 09:02 33.37732 139.79996 7689 ft 292 kts 201°
2026-04-25 09:02 33.35954 139.78871 7405 ft 288 kts 212°
2026-04-25 09:02 33.34261 139.77587 7068 ft 288 kts 212°
2026-04-25 09:02 33.32578 139.76290 6776 ft 287 kts 212°
2026-04-25 09:03 33.30921 139.75016 6624 ft 279 kts 212°
2026-04-25 09:03 33.29305 139.73781 6480 ft 272 kts 211°
2026-04-25 09:03 33.27731 139.72584 6344 ft 265 kts 211°
2026-04-25 09:03 33.26202 139.71428 6219 ft 257 kts 210°
2026-04-25 09:04 33.24693 139.70286 5990 ft 258 kts 210°
2026-04-25 09:04 33.23166 139.69134 5731 ft 261 kts 209°
2026-04-25 09:04 33.21622 139.67966 5466 ft 261 kts 207°
2026-04-25 09:04 33.20079 139.66810 5180 ft 263 kts 210°
2026-04-25 09:05 33.18539 139.65642 4933 ft 261 kts 206°
2026-04-25 09:05 33.17006 139.64491 4658 ft 261 kts 208°
2026-04-25 09:05 33.15471 139.63343 4363 ft 260 kts 208°
2026-04-25 09:05 33.13938 139.62190 4051 ft 260 kts 207°
2026-04-25 09:06 33.12415 139.61109 3704 ft 254 kts 199°
2026-04-25 09:06 33.10762 139.60684 3350 ft 237 kts 168°
2026-04-25 09:06 33.09291 139.61287 3075 ft 218 kts 140°
2026-04-25 09:06 33.08264 139.62539 2816 ft 208 kts 118°
2026-04-25 09:07 33.07688 139.64090 2559 ft 202 kts 102°
2026-04-25 09:07 33.07563 139.65708 2304 ft 193 kts 82°
2026-04-25 09:07 33.07899 139.67210 2071 ft 183 kts 70°
2026-04-25 09:07 33.08354 139.68607 1814 ft 177 kts 71°
2026-04-25 09:08 33.08778 139.69926 1593 ft 162 kts 71°
2026-04-25 09:08 33.09170 139.71156 1383 ft 157 kts 71°
2026-04-25 09:08 33.09549 139.72352 1194 ft 149 kts 71°
2026-04-25 09:08 33.09892 139.73441 1083 ft 135 kts 71°
2026-04-25 09:09 33.10209 139.74471 887 ft 133 kts 72°
2026-04-25 09:09 33.10554 139.75545 701 ft 141 kts 69°
2026-04-25 09:09 33.10903 139.76627 514 ft 138 kts 73°
2026-04-25 09:09 33.11228 139.77671 318 ft 132 kts 72°
2026-04-25 09:10 33.11510 139.78576 298 ft 90 kts 70°
2026-04-25 09:10 33.11646 139.79011 294 ft 19 kts 70°
2026-04-25 09:10 33.11651 139.79073 292 ft 6 kts 56°
2026-04-25 09:10 33.11667 139.79071 294 ft 2 kts 313°
2026-04-25 09:11 33.11647 139.79008 295 ft 11 kts 247°
2026-04-25 09:11 33.11588 139.78827 298 ft 21 kts 249°
2026-04-25 09:11 33.11554 139.78719 298 ft 21 kts 249°
2026-04-25 09:12 33.11504 139.78560 298 ft 20 kts 249°
2026-04-25 09:12 33.11467 139.78444 300 ft 1 kts 249°
2026-04-25 09:12 33.11464 139.78435 299 ft 1 kts 249°
2026-04-25 09:12 33.11460 139.78422 300 ft 2 kts 249°
2026-04-25 09:13 33.11455 139.78408 297 ft 2 kts 248°
2026-04-25 09:13 33.11449 139.78389 297 ft 3 kts 248°
2026-04-25 09:13 33.11456 139.78363 297 ft 8 kts 322°
2026-04-25 09:13 33.11509 139.78336 299 ft 8 kts 340°
2026-04-25 09:14 33.11524 139.78330 297 ft 0 kts 340°
2026-04-25 09:14 33.11531 139.78324 300 ft 4 kts 326°
2026-04-25 09:14 33.11570 139.78286 296 ft 5 kts 340°
2026-04-25 09:15 33.11583 139.78280 299 ft 1 kts 339°